[[{"header":{"parameterUnit":"m.s-1","parameterCategory":1,"la1":30.2991,"la2":30.254,"lo1":-89.0895,"lo2":-89.0444,"dy":0.0017,"dx":0.0017,"nx":28,"ny":28,"refTime":"2023-04-25T21:00:00:Z","depth":0,"parameterNumber":2,"parameterNumberName":"U-component_of_WINDS"},"data":[0,0,0,0,0,0,0,0,0,0,0,0,0,0,0,0,0,0,0,0,0,0,0,0,0,0,0,0,0,0,0,0,0,0,0,0,0,0,0,0,0,0,0,0,0,0,0,0,0,0,0,0,0,0,0,0,0,0,-2.8085,-2.8085,0,-2.8118,-2.8118,-2.8119,-2.8096,-2.8095,-2.8094,-2.8093,-2.8126,-2.8128,-2.813,0,0,0,0,0,0,0,0,0,0,0,0,0,-2.8,-2.8002,-2.8085,-2.8085,-2.8085,-2.8118,-2.8118,-2.8119,-2.8096,-2.8095,-2.8093,-2.8092,-2.8125,-2.8127,-2.813,0,0,0,0,0,0,0,0,0,0,0,0,0,-2.8036,-2.8003,-2.8084,-2.8078,-2.8078,-2.8118,-2.8118,-2.8119,-2.8096,-2.8095,-2.8093,-2.8092,-2.8125,-2.8127,-2.813,-2.8178,0,0,-2.8138,-2.814,0,0,0,0,0,0,0,0,-2.8034,-2.8039,-2.8078,-2.8078,-2.8078,-2.8101,-2.8101,-2.8139,-2.8097,-2.8089,-2.8093,-2.8091,-2.8119,-2.8122,-2.8132,-2.818,-2.8181,-2.8139,-2.814,-2.8142,-2.8142,0,0,0,0,0,0,0,-2.8031,-2.8037,-2.8098,-2.8079,-2.8079,-2.8073,-2.8076,-2.8108,-2.8112,-2.809,-2.8088,-2.8092,-2.8118,-2.8129,-2.8132,-2.8181,-2.8139,-2.8141,-2.8143,-2.8144,-2.827,-2.8272,0,0,0,0,0,0,-2.8029,-2.8035,-2.8097,-2.8099,-2.8052,-2.8076,-2.808,-2.8095,-2.8112,-2.8113,-2.8094,-2.8091,-2.8125,-2.8129,-2.8133,-2.819,-2.8142,-2.8144,-2.8146,-2.8269,-2.8271,-2.8273,0,0,0,0,0,0,-2.8028,-2.8035,-2.8095,-2.8067,-2.8074,-2.8079,-2.8097,-2.8097,-2.8107,-2.8115,-2.8115,-2.8104,-2.8124,-2.8129,-2.8167,-2.8191,-2.8145,-2.8148,-2.8267,-2.8269,-2.8272,-2.8304,0,0,0,0,0,0,-2.8025,-2.8035,-2.8053,-2.8067,-2.8075,-2.8129,-2.8098,-2.8099,-2.8112,-2.8109,-2.8124,-2.8125,-2.8123,-2.8163,-2.817,-2.8194,-2.815,-2.8264,-2.8268,-2.8271,-2.8301,-2.8308,-2.8313,0,0,0,0,0,-2.8023,-2.8061,-2.8054,-2.8062,-2.8099,-2.813,-2.8135,-2.8132,-2.8114,-2.8133,-2.8138,-2.8125,-2.8188,-2.8167,-2.8175,-2.82,-2.8263,-2.8267,-2.8271,-2.8298,-2.8306,-2.8313,0,0,0,0,0,0,-2.8049,-2.8063,-2.8055,-2.8099,-2.8114,-2.8126,-2.8149,-2.814,-2.816,-2.8156,-2.8151,-2.8155,-2.8194,-2.8201,-2.8178,-2.8247,-2.8222,-2.8228,-2.8241,-2.8249,-2.8255,-2.8252,-2.8152,0,0,0,0,0,-2.806,-2.8085,-2.8095,-2.8133,-2.8141,-2.8144,-2.8158,-2.8154,-2.8169,-2.8175,-2.8182,-2.8197,-2.822,-2.8235,-2.8256,-2.8303,-2.8305,-2.8324,-2.833,-2.8335,-2.8339,-2.8363,-2.8372,-2.8285,-2.8285,-2.8285,0,0,-2.8083,-2.8093,-2.8109,-2.8139,-2.815,-2.8175,-2.8149,-2.8177,-2.8196,-2.8179,-2.8215,-2.8221,-2.8237,-2.8279,-2.8298,-2.8286,-2.8364,-2.834,-2.8343,-2.8345,-2.8368,-2.8376,-2.8384,-2.8288,-2.8287,-2.8287,0,0,-2.8137,-2.8148,-2.8181,-2.8192,-2.8209,-2.8211,-2.8219,-2.8233,-2.8236,-2.8273,-2.826,-2.8282,-2.8322,-2.8334,-2.8345,-2.8405,-2.8393,-2.8412,-2.8443,-2.8467,-2.8474,-2.848,-2.85,-2.8508,-2.8417,-2.8417,-2.8417,0,-2.8163,-2.8201,-2.8198,-2.8227,-2.824,-2.8227,-2.826,-2.8271,-2.8294,-2.8303,-2.8289,-2.8339,-2.8349,-2.8393,-2.8408,-2.8417,-2.8426,-2.8409,-2.8473,-2.8479,-2.8485,-2.8504,-2.8512,-2.8419,-2.8418,-2.8418,-2.8418,0,-2.8232,-2.8259,-2.8283,-2.8306,-2.8322,-2.8353,-2.8354,-2.8371,-2.8366,-2.8369,-2.8406,-2.8418,-2.8441,-2.8452,-2.8448,-2.8496,-2.8487,-2.8474,-2.8449,-2.8495,-2.8513,-2.8521,-2.8422,-2.8421,-2.842,-2.842,0,0,-2.8303,-2.8324,-2.8333,-2.8343,-2.8361,-2.8381,-2.8412,-2.8435,-2.8449,-2.8466,-2.849,-2.8525,-2.8512,-2.8525,-2.8522,-2.8543,-2.8589,-2.8527,-2.8527,-2.8537,-2.8641,-2.8651,-2.866,-2.8582,-2.8583,-2.8585,-2.864,0,-2.8357,-2.841,-2.8409,-2.8457,-2.8482,-2.847,-2.8496,-2.851,-2.8514,-2.8535,-2.8539,-2.8563,-2.8545,-2.8553,-2.8573,-2.8579,-2.8609,-2.8575,-2.8604,-2.8605,-2.8599,-2.8669,-2.8679,-2.8731,-2.8647,-2.8648,-2.8649,0,-2.8428,-2.8447,-2.8498,-2.8513,-2.8523,-2.8546,-2.8568,-2.8588,-2.8604,-2.8605,-2.862,-2.8614,-2.8644,-2.8619,-2.866,-2.8637,-2.8649,-2.8654,-2.8656,-2.8657,-2.8629,-2.8671,-2.8747,-2.8754,-2.866,-2.8659,-2.8659,0,-2.8473,-2.8512,-2.8548,-2.8557,-2.8575,-2.8591,-2.86,-2.8614,-2.8628,-2.8646,-2.8655,-2.8677,-2.8689,-2.8706,-2.8706,-2.8688,-2.8748,-2.8723,-2.8749,-2.8749,-2.8761,-2.876,-2.8838,-2.8771,-2.8771,-2.8771,-2.8771,0,-2.8534,-2.8565,-2.8568,-2.859,-2.8625,-2.8623,-2.8658,-2.8664,-2.8677,-2.8699,-2.8691,-2.8712,-2.8711,-2.8733,-2.8733,-2.8767,-2.8773,-2.8774,-2.8774,-2.8774,-2.8774,-2.8781,-2.8777,-2.8773,-2.8772,-2.8772,-2.8772,0,-2.859,-2.8593,-2.8631,-2.8645,-2.8649,-2.8674,-2.8686,-2.8707,-2.871,-2.8739,-2.8746,-2.8752,-2.8777,-2.8779,-2.8808,-2.8808,-2.8848,-2.8845,-2.8843,-2.8842,-2.8868,-2.8865,-2.8953,-2.8964,-2.889,-2.8891,-2.8891,0,-2.8628,-2.8652,-2.8668,-2.8683,-2.8692,-2.8716,-2.873,-2.873,-2.8745,-2.8764,-2.8783,-2.8807,-2.8826,-2.8867,-2.8873,-2.8896,-2.8891,-2.8921,-2.8895,-2.8894,-2.8891,-2.8889,-2.8891,-2.8925,-2.8926,-2.8927,-2.8927,0,-2.8694,-2.8695,-2.8716,-2.8738,-2.8755,-2.8772,-2.8789,-2.8801,-2.8802,-2.882,-2.8846,-2.8861,-2.889,-2.8914,-2.8936,-2.8944,-2.8936,-2.8936,-2.8943,-2.8943,-2.8941,-2.8941,-2.8856,-2.8933,-2.8933,-2.8932,-2.8932,-2.8932,-2.8741,-2.8762,-2.8777,-2.8801,-2.8813,-2.8828,-2.8848,-2.8855,-2.8876,-2.89,-2.8899,-2.8927,-2.8942,-2.897,-2.898,-2.9002,-2.8992,-2.9002,-2.9005,-2.9007,-2.9009,-2.8938,-2.9006,-2.9006,-2.9006,-2.9005,-2.9005,0,-2.8807,-2.8816,-2.8838,-2.8861,-2.8879,-2.8871,-2.8888,-2.8904,-2.8929,-2.8944,-2.8963,-2.8992,-2.9016,-2.9025,-2.9047,-2.9063,-2.906,-2.9069,-2.9067,-2.9069,-2.9017,-2.9008,-2.9071,-2.9071,-2.9071,-2.9071,-2.9071,-2.9071,-2.8843,-2.8877,-2.8879,-2.892,-2.8928,-2.8956,-2.8967,-2.898,-2.8992,-2.9025,-2.9045,-2.905,-2.9063,-2.9086,-2.9107,-2.9109,-2.9117,-2.9128,-2.9128,-2.9079,-2.9073,-2.9066,-2.9058,-2.913,-2.913,-2.9178,-2.9179,-2.9179]},{"header":{"parameterUnit":"m.s-1","parameterCategory":1,"la1":30.2991,"la2":30.254,"lo1":-89.0895,"lo2":-89.0444,"dy":0.0017,"dx":0.0017,"nx":28,"ny":28,"refTime":"2023-04-25T21:00:00:Z","depth":0,"parameterNumber":3,"parameterNumberName":"V-component_of_WINDS"},"data":[0,0,0,0,0,0,0,0,0,0,0,0,0,0,0,0,0,0,0,0,0,0,0,0,0,0,0,0,0,0,0,0,0,0,0,0,0,0,0,0,0,0,0,0,0,0,0,0,0,0,0,0,0,0,0,0,0,0,2.809,2.809,0,2.8121,2.8121,2.8121,2.8096,2.8095,2.8094,2.8093,2.8122,2.8124,2.8126,0,0,0,0,0,0,0,0,0,0,0,0,0,2.8008,2.8009,2.809,2.809,2.8091,2.8121,2.8121,2.8122,2.8097,2.8095,2.8094,2.8093,2.8122,2.8124,2.8126,0,0,0,0,0,0,0,0,0,0,0,0,0,2.8041,2.801,2.809,2.8082,2.8081,2.8121,2.8121,2.8122,2.8097,2.8095,2.8094,2.8092,2.8121,2.8124,2.8126,2.8174,0,0,2.8134,2.8136,0,0,0,0,0,0,0,0,2.8039,2.8044,2.8083,2.8082,2.8082,2.8103,2.8103,2.8139,2.8097,2.8091,2.8093,2.8091,2.8117,2.812,2.8129,2.8176,2.8177,2.8135,2.8136,2.8137,2.8138,0,0,0,0,0,0,0,2.8037,2.8043,2.8102,2.8083,2.8083,2.8076,2.8079,2.811,2.8112,2.8091,2.809,2.8094,2.8117,2.8127,2.813,2.8177,2.8135,2.8137,2.8139,2.814,2.8266,2.8268,0,0,0,0,0,0,2.8036,2.8041,2.8101,2.8103,2.8057,2.8079,2.8082,2.8098,2.8112,2.8113,2.8095,2.8092,2.8123,2.8127,2.8131,2.8189,2.8137,2.814,2.8141,2.8265,2.8267,2.8269,0,0,0,0,0,0,2.8034,2.8041,2.81,2.8072,2.8079,2.8082,2.81,2.8099,2.8109,2.8115,2.8115,2.8105,2.8122,2.8127,2.8164,2.819,2.8141,2.8143,2.8262,2.8265,2.8268,2.8305,0,0,0,0,0,0,2.8032,2.8041,2.806,2.8072,2.808,2.8133,2.8101,2.8101,2.8114,2.8111,2.8124,2.8125,2.8121,2.816,2.8167,2.8192,2.8146,2.826,2.8264,2.8267,2.8302,2.8309,2.8315,0,0,0,0,0,2.8029,2.8068,2.8061,2.8068,2.8104,2.8135,2.8139,2.8135,2.8116,2.8135,2.8139,2.8124,2.8186,2.8164,2.8171,2.8198,2.8259,2.8263,2.8267,2.8299,2.8308,2.8315,0,0,0,0,0,0,2.8057,2.8069,2.8061,2.8106,2.812,2.8131,2.8154,2.8144,2.8163,2.8159,2.8152,2.8155,2.8195,2.82,2.8176,2.8246,2.8219,2.8225,2.8241,2.825,2.8256,2.8254,2.8148,0,0,0,0,0,2.8069,2.8094,2.8103,2.8141,2.8149,2.815,2.8164,2.8159,2.8173,2.8178,2.8185,2.8198,2.822,2.8235,2.8256,2.8302,2.8305,2.8324,2.8331,2.8336,2.8341,2.8368,2.8376,2.8282,2.8282,2.8282,0,0,2.8092,2.8102,2.8118,2.8147,2.8157,2.8183,2.8155,2.8183,2.8202,2.8182,2.8218,2.8224,2.8238,2.8281,2.83,2.8286,2.8368,2.8341,2.8346,2.8348,2.8373,2.8382,2.839,2.8285,2.8284,2.8284,0,0,2.8149,2.8159,2.8192,2.8203,2.822,2.8221,2.8229,2.8242,2.8245,2.8281,2.8267,2.8289,2.8328,2.8339,2.835,2.8412,2.84,2.8419,2.8454,2.848,2.8487,2.8494,2.8517,2.8525,2.8424,2.8424,2.8424,0,2.8176,2.8215,2.821,2.8241,2.8254,2.8238,2.8272,2.8283,2.8305,2.8314,2.8299,2.8348,2.8356,2.8402,2.8418,2.8426,2.8436,2.8418,2.8486,2.8493,2.8499,2.8521,2.853,2.8426,2.8426,2.8426,2.8426,0,2.8248,2.8276,2.8301,2.8324,2.834,2.8372,2.8372,2.8389,2.8383,2.8386,2.8423,2.8433,2.8456,2.8467,2.8461,2.8512,2.8503,2.8488,2.846,2.8511,2.8531,2.854,2.843,2.8429,2.8428,2.8428,0,0,2.8323,2.8344,2.8354,2.8365,2.8382,2.8403,2.8434,2.8458,2.8473,2.8488,2.8515,2.8548,2.8535,2.8547,2.8542,2.8565,2.8615,2.8546,2.8546,2.856,2.8673,2.8686,2.8696,2.8607,2.8609,2.861,2.8673,0,2.8381,2.8437,2.8434,2.8486,2.8512,2.8498,2.8525,2.8538,2.8542,2.8564,2.8567,2.8592,2.8571,2.8578,2.86,2.8604,2.8638,2.86,2.8632,2.8633,2.863,2.8707,2.872,2.8779,2.8681,2.8682,2.8683,0,2.8457,2.8477,2.8532,2.8547,2.8557,2.8582,2.8605,2.8626,2.8641,2.8642,2.8657,2.8648,2.868,2.8652,2.8696,2.867,2.8683,2.8687,2.8689,2.8693,2.8662,2.8713,2.8797,2.8807,2.8696,2.8695,2.8694,0,2.8507,2.8548,2.8586,2.8596,2.8614,2.8632,2.864,2.8654,2.8669,2.8688,2.8698,2.872,2.8732,2.875,2.8748,2.8727,2.8793,2.8764,2.8795,2.8795,2.881,2.8809,2.8898,2.8817,2.8817,2.8816,2.8816,0,2.8573,2.8608,2.861,2.8633,2.8672,2.8668,2.8706,2.8712,2.8725,2.875,2.8738,2.8761,2.8757,2.878,2.8779,2.8816,2.8821,2.8823,2.8823,2.8825,2.8825,2.8834,2.883,2.8819,2.8818,2.8818,2.8817,0,2.8637,2.8639,2.868,2.8695,2.8699,2.8727,2.8739,2.8761,2.8764,2.8796,2.8803,2.8807,2.8834,2.8834,2.8864,2.8864,2.891,2.8904,2.8905,2.8904,2.8935,2.8933,2.9034,2.9048,2.8956,2.8957,2.8958,0,2.8679,2.8706,2.8723,2.874,2.8749,2.8775,2.8791,2.8788,2.8805,2.8825,2.8846,2.8872,2.8893,2.8936,2.8942,2.8965,2.8961,2.8995,2.8964,2.8966,2.8963,2.8962,2.8965,2.9001,2.9002,2.9003,2.9003,0,2.8755,2.8755,2.8778,2.8803,2.8822,2.8841,2.8858,2.8872,2.8872,2.8891,2.8919,2.8936,2.8967,2.8994,2.9017,2.9025,2.9015,2.9013,2.9021,2.9025,2.9025,2.9026,2.8923,2.9011,2.901,2.9009,2.9009,2.9009,2.881,2.8833,2.885,2.8877,2.889,2.8907,2.8929,2.8935,2.8959,2.8986,2.8982,2.9014,2.9029,2.9059,2.9069,2.9094,2.9082,2.9094,2.9098,2.9101,2.9105,2.902,2.9098,2.9098,2.9098,2.9097,2.9097,0,2.8886,2.8896,2.8921,2.8947,2.8968,2.8957,2.8976,2.8994,2.9023,2.9038,2.906,2.9092,2.9118,2.9126,2.9151,2.917,2.9166,2.9176,2.9176,2.9178,2.9113,2.9104,2.9179,2.9179,2.9179,2.9179,2.9179,2.9179,2.8928,2.8968,2.897,2.9016,2.9026,2.9058,2.907,2.9086,2.9098,2.9136,2.9158,2.9163,2.9176,2.9202,2.9226,2.9227,2.9238,2.9251,2.9251,2.919,2.9182,2.9174,2.9166,2.9253,2.9253,2.9313,2.9314,2.9314]}]]